This is the latest recevied weather packets stored in our database for station/object WC4PEM-11. If no packets are shown the sender has not sent any weather packets the latest 10 day(s).
| Time | Temp. | Humidity | Pressure | Rain* | Wind** | Luminosity | Snow |
|---|---|---|---|---|---|---|---|
| 1777734792 | 28.89° C | 69% | 1011.7 hPa | 0 mm | - | - | - |
| 1777734492 | 28.89° C | 69% | 1011.5 hPa | 0 mm | - | - | - |
| 1777734355 | 28.33° C | 71% | 1011.7 hPa | 0 mm | - | - | - |
| 1777734192 | 28.33° C | 71% | 1011.7 hPa | 0 mm | - | - | - |
| 1777733892 | 28.33° C | 72% | 1011.7 hPa | 0 mm | - | - | - |
| 1777733592 | 28.33° C | 74% | 1011.7 hPa | 0 mm | - | - | - |
| 1777733292 | 27.78° C | 75% | 1011.8 hPa | 0 mm | - | - | - |
| 1777733047 | 27.78° C | 75% | 1011.6 hPa | 0 mm | - | - | - |
| 1777732992 | 28.33° C | 75% | 1011.8 hPa | 0 mm | - | - | - |
| 1777732692 | 28.33° C | 75% | 1011.7 hPa | 0 mm | - | - | - |
| 1777732392 | 27.78° C | 75% | 1011.6 hPa | 0 mm | - | - | - |
| 1777732092 | 27.78° C | 76% | 1011.6 hPa | 0 mm | - | - | - |
| 1777731884 | 26.11° C | 81% | 1011.5 hPa | 0 mm | - | - | - |
| 1777731792 | 27.78° C | 76% | 1011.5 hPa | 0 mm | - | - | - |
| 1777731492 | 27.22° C | 78% | 1011.5 hPa | 0 mm | - | - | - |
| 1777731192 | 26.67° C | 79% | 1011.4 hPa | 0 mm | - | - | - |
| 1777730892 | 26.67° C | 80% | 1011.4 hPa | 0 mm | - | - | - |
| 1777730592 | 26.11° C | 81% | 1011.5 hPa | 0 mm | - | - | - |
| 1777730292 | 26.11° C | 82% | 1011.4 hPa | 0 mm | - | - | - |
| 1777730048 | 26.11° C | 83% | 1011.3 hPa | 0 mm | - | - | - |
| 1777729992 | 26.11° C | 83% | 1011.3 hPa | 0 mm | - | - | - |
| 1777729692 | 25.56° C | 84% | 1011.2 hPa | 0 mm | - | - | - |
| 1777729392 | 25.56° C | 85% | 1011.4 hPa | 0 mm | - | - | - |
| 1777729092 | 25° C | 85% | 1011.3 hPa | 0 mm | - | - | - |
| 1777728792 | 25° C | 85% | 1011.2 hPa | 0 mm | - | - | - |
* Rain latest hour (hover to see other rain measurements)
** Current wind speed in m/s (hover to see current wind gust speed)